Date String (YYYY-MM-DD hh:mm:ss) UTC,Instrument flags,absolute air pressure of the measurement (hPa),sample flow rate (lpm),inlet stack bypass flow (lpm),air temperature of the measurement (°C),ambient temperature measured by the external sensor (°C),aerosol sample conditioner tube jacket temperature (°C),OPC LED temperature (°C),internal box temperature (°C),relative humidity of the measurement (%),span deviation,mass concentration of particles derived from Lorenz-Mie calculation of OPC scattering (μg/m³),mass concentration of particles derived from Lorenz-Mie calculation of OPC scattering (μg/m³),mass concentration of particles derived from Lorenz-Mie calculation of OPC scattering (μg/m³)
DateTimeUTC,F1_M11,P_M11,Q1_M11,Q2_M11,T1_M11,T2_M11,T3_M11,T4_M11,T5_M11,U1_M11,ZSPAN_M11,X0_M11,X2_M11,X1_M11
2023-07-23 11:00:00,SystemResetWarning,0833.9,5.01,000.00,029.9,028.6,000.0,038.3,031.5,19.2,0000.0,0010.20,0006.82,0006.44
2023-07-23 11:01:00,SystemResetWarning,0833.9,5.01,000.00,029.9,028.6,000.0,038.3,031.5,18.8,0000.0,0010.32,0006.80,0006.42
2023-07-23 11:02:00,SystemResetWarning,0833.9,5.00,000.00,029.9,028.7,000.0,038.3,031.5,18.5,0000.0,0010.71,0006.75,0006.39
2023-07-23 11:03:00,SystemResetWarning,0833.9,4.99,000.00,029.9,028.7,000.0,038.3,031.5,18.5,0000.0,0010.57,0006.67,0006.36
2023-07-23 11:04:00,SystemResetWarning,0834.0,4.99,000.00,029.9,028.7,000.0,038.4,031.5,18.1,0000.0,0010.50,0006.62,0006.32
2023-07-23 11:05:00,SystemResetWarning,0834.0,5.00,000.00,030.0,028.6,000.0,038.4,031.6,18.0,0000.0,0010.44,0006.56,0006.28
2023-07-23 11:06:00,SystemResetWarning,0833.9,5.00,000.00,029.9,026.9,000.0,038.2,031.4,17.8,0000.0,0010.36,0006.50,0006.23
2023-07-23 11:07:00,SystemResetWarning,0833.9,5.01,000.00,029.8,025.3,000.0,038.1,031.1,17.7,0000.0,0010.26,0006.45,0006.20
2023-07-23 11:08:00,SystemResetWarning,0833.8,5.01,000.00,029.7,025.2,000.0,038.1,030.8,17.8,0000.0,0010.21,0006.44,0006.19
2023-07-23 11:09:00,SystemResetWarning,0833.9,5.01,000.00,029.6,025.5,000.0,038.1,030.7,17.9,0000.0,0010.21,0006.45,0006.18
2023-07-23 11:10:00,SystemResetWarning,0833.9,4.99,000.00,029.5,025.9,000.0,038.1,030.7,18.0,0000.0,0010.16,0006.44,0006.18
2023-07-23 11:11:00,SystemResetWarning,0833.9,4.99,000.00,029.5,026.4,000.0,038.1,030.8,18.1,0000.0,0009.37,0006.45,0006.18
2023-07-23 11:12:00,SystemResetWarning,0834.0,5.00,000.00,029.5,026.7,000.0,038.1,030.8,18.1,0001.2,0009.49,0006.48,0006.21
2023-07-23 11:13:00,SystemResetWarning,0834.0,5.01,000.00,029.5,027.0,000.0,038.1,030.9,18.4,0001.8,0009.50,0006.51,0006.24
2023-07-23 11:14:00,SystemResetWarning,0834.0,5.02,000.00,029.5,027.3,000.0,038.1,030.9,18.4,0001.2,0009.61,0006.56,0006.26
2023-07-23 11:15:00,SystemResetWarning,0834.0,4.99,000.00,029.5,027.5,000.0,038.1,031.0,17.8,0000.9,0009.69,0006.59,0006.28
2023-07-23 11:16:00,SystemResetWarning,0833.9,4.99,000.00,029.5,027.6,000.0,038.1,031.0,19.3,0000.8,0010.19,0006.64,0006.32
2023-07-23 11:17:00,SystemResetWarning,0833.9,5.00,000.00,029.5,027.8,000.0,038.1,031.0,19.1,0000.0,0010.46,0006.66,0006.33
2023-07-23 11:18:00,SystemResetWarning,0833.9,5.00,000.00,029.5,027.9,000.0,038.1,031.1,18.9,0000.0,0010.53,0006.70,0006.35
2023-07-23 11:19:00,SystemResetWarning,0834.0,5.00,000.00,029.5,028.0,000.0,038.1,031.1,18.5,0000.0,0010.66,0006.75,0006.37
2023-07-23 11:20:00,SystemResetWarning,0834.0,5.01,000.00,029.6,028.1,000.0,038.1,031.1,18.2,0000.0,0010.77,0006.80,0006.39
2023-07-23 11:21:00,SystemResetWarning,0833.9,5.01,000.00,029.6,028.1,000.0,038.1,031.2,17.8,0000.0,0010.74,0006.81,0006.42
2023-07-23 11:22:00,SystemResetWarning,0834.0,5.01,000.00,029.6,028.2,000.0,038.1,031.2,17.5,0000.0,0010.74,0006.82,0006.45
2023-07-23 11:23:00,SystemResetWarning,0833.9,5.00,000.00,029.6,028.2,000.0,038.1,031.2,17.6,0000.0,0010.62,0006.84,0006.46
2023-07-23 11:24:00,SystemResetWarning,0834.0,5.00,000.00,029.6,028.3,000.0,038.1,031.2,17.6,0000.0,0010.16,0006.85,0006.45
2023-07-23 11:25:00,SystemResetWarning,0833.9,4.99,000.00,029.7,028.3,000.0,038.1,031.2,17.4,0000.0,0010.13,0006.85,0006.45
2023-07-23 11:26:00,SystemResetWarning,0834.0,5.00,000.00,029.7,028.4,000.0,038.1,031.3,17.4,0000.0,0010.06,0006.83,0006.45
2023-07-23 11:27:00,SystemResetWarning,0833.9,5.00,000.00,029.7,028.4,000.0,038.1,031.3,17.7,0000.0,0009.77,0006.84,0006.46
2023-07-23 11:28:00,SystemResetWarning,0834.0,5.00,000.00,029.7,028.4,000.0,038.2,031.3,17.1,0000.0,0009.82,0006.83,0006.47
2023-07-23 11:29:00,SystemResetWarning,0834.0,5.00,000.00,029.7,028.5,000.0,038.2,031.3,17.4,0000.0,0010.08,0006.85,0006.48
2023-07-23 11:30:00,SystemResetWarning,0834.0,5.00,000.00,029.8,028.5,000.0,038.2,031.4,17.5,0000.0,0010.00,0006.82,0006.48
2023-07-23 11:31:00,SystemResetWarning,0834.0,5.00,000.00,029.8,028.5,000.0,038.2,031.4,17.5,0000.0,0009.88,0006.79,0006.47
2023-07-23 11:32:00,SystemResetWarning,0834.0,5.00,000.00,029.8,028.5,000.0,038.2,031.4,17.7,0000.0,0009.95,0006.80,0006.45
2023-07-23 11:33:00,SystemResetWarning,0834.0,5.01,000.00,029.8,028.6,000.0,038.2,031.4,17.7,0001.9,0010.58,0006.78,0006.44
2023-07-23 11:34:00,SystemResetWarning,0834.0,5.01,000.00,029.8,028.6,000.0,038.3,031.4,17.6,0003.8,0010.56,0006.74,0006.42
2023-07-23 11:35:00,SystemResetWarning,0834.0,5.01,000.00,029.9,028.6,000.0,038.3,031.5,17.4,0003.4,0010.68,0006.73,0006.43
2023-07-23 11:36:00,SystemResetWarning,0834.0,5.00,000.00,029.9,028.7,000.0,038.3,031.5,17.6,0002.3,0010.87,0006.74,0006.44
2023-07-23 11:37:00,SystemResetWarning,0834.0,5.00,000.00,029.9,028.7,000.0,038.3,031.5,17.7,0000.0,0010.91,0006.75,0006.45
2023-07-23 11:38:00,SystemResetWarning,0834.0,5.01,000.00,029.9,028.7,000.0,038.3,031.5,17.7,0000.4,0010.93,0006.78,0006.46
2023-07-23 11:39:00,SystemResetWarning,0833.9,5.00,000.00,029.9,028.7,000.0,038.4,031.6,17.7,0000.6,0010.51,0006.79,0006.48
2023-07-23 11:40:00,SystemResetWarning,0834.0,5.00,000.00,030.0,028.7,000.0,038.4,031.6,17.7,0000.0,0010.22,0006.80,0006.50
2023-07-23 11:41:00,SystemResetWarning,0833.9,4.99,000.00,030.0,028.4,000.0,038.4,031.6,17.9,0000.0,0010.37,0006.85,0006.53
2023-07-23 11:42:00,SystemResetWarning,0833.9,4.99,000.00,029.9,026.4,000.0,038.2,031.3,18.5,0000.0,0010.39,0006.88,0006.57
2023-07-23 11:43:00,SystemResetWarning,0833.9,5.01,000.00,029.8,025.3,000.0,038.1,031.1,18.3,0000.0,0011.04,0006.92,0006.60
2023-07-23 11:44:00,SystemResetWarning,0833.9,5.00,000.00,029.7,025.3,000.0,038.1,030.9,18.7,0000.0,0010.69,0006.97,0006.63
2023-07-23 11:45:00,SystemResetWarning,0833.9,5.00,000.00,029.6,025.7,000.0,038.1,030.8,18.7,0000.0,0010.66,0007.01,0006.66
2023-07-23 11:46:00,SystemResetWarning,0833.9,5.00,000.00,029.6,026.1,000.0,038.1,030.8,18.2,0000.0,0010.59,0007.05,0006.69
2023-07-23 11:47:00,SystemResetWarning,0834.0,5.00,000.00,029.5,026.5,000.0,038.1,030.9,18.7,0000.0,0010.47,0007.09,0006.72
2023-07-23 11:48:00,SystemResetWarning,0834.0,4.99,000.00,029.5,026.8,000.0,038.1,030.9,19.1,0000.0,0010.49,0007.14,0006.75
2023-07-23 11:49:00,SystemResetWarning,0834.0,5.00,000.00,029.5,027.1,000.0,038.1,031.0,20.5,0000.0,0010.58,0007.16,0006.78
2023-07-23 11:50:00,SystemResetWarning,0834.0,5.00,000.00,029.5,027.4,000.0,038.1,031.0,20.1,0000.0,0010.61,0007.18,0006.80
2023-07-23 11:51:00,SystemResetWarning,0834.0,4.99,000.00,029.5,027.6,000.0,038.1,031.0,21.0,0000.0,0010.66,0007.20,0006.80
2023-07-23 11:52:00,SystemResetWarning,0834.0,4.99,000.00,029.5,027.8,000.0,038.1,031.1,20.9,0000.0,0010.61,0007.19,0006.80
2023-07-23 11:53:00,SystemResetWarning,0834.0,5.00,000.00,029.6,027.9,000.0,038.1,031.1,21.5,0000.0,0010.91,0007.15,0006.77
2023-07-23 11:54:00,SystemResetWarning,0834.0,5.00,000.00,029.6,028.0,000.0,038.1,031.1,21.4,0000.0,0010.73,0007.14,0006.75
2023-07-23 11:55:00,SystemResetWarning,0833.9,5.00,000.00,029.6,028.1,000.0,038.1,031.2,21.5,0000.0,0010.14,0007.12,0006.74
2023-07-23 11:56:00,SystemResetWarning,0833.9,5.00,000.00,029.6,028.2,000.0,038.1,031.2,21.5,0001.0,0010.07,0007.08,0006.72
2023-07-23 11:57:00,SystemResetWarning,0834.0,5.01,000.00,029.6,028.3,000.0,038.1,031.2,21.2,0002.4,0010.27,0007.13,0006.74
2023-07-23 11:58:00,SystemResetWarning,0834.0,5.00,000.00,029.7,028.3,000.0,038.1,031.3,21.8,0002.8,0010.40,0007.14,0006.76
2023-07-23 11:59:00,SystemResetWarning,0834.0,5.00,000.00,029.7,028.4,000.0,038.1,031.3,21.3,0002.0,0010.41,0007.15,0006.75
